This is the latest recevied weather packets stored in our database for station/object M0JUI-1. If no packets are shown the sender has not sent any weather packets the latest 10 day(s).
| Time | Temp. | Humidity | Pressure | Rain* | Wind** | Luminosity | Snow |
|---|---|---|---|---|---|---|---|
| 1788591922 | 13.89° C | 15% | 1022 hPa | 0 mm | - | 81 W/m² | - |
| 1788591621 | 13.33° C | 14% | 1021.9 hPa | 0 mm | - | 87 W/m² | - |
| 1788591321 | 12.78° C | 13% | 1021.6 hPa | 0 mm | - | 82 W/m² | - |
| 1788591009 | 12.78° C | 12% | 1021.5 hPa | 0 mm | - | 40 W/m² | - |
| 1788590709 | 12.78° C | 12% | 1021.5 hPa | 0 mm | - | 49 W/m² | - |
| 1788590409 | 12.78° C | 12% | 1021.5 hPa | 0 mm | - | 65 W/m² | - |
| 1788590110 | 12.22° C | 12% | 1021.4 hPa | 0 mm | - | 51 W/m² | - |
| 1788589810 | 12.22° C | 12% | 1021.3 hPa | 0 mm | - | 35 W/m² | - |
| 1788589509 | 12.22° C | 11% | 1021.2 hPa | 0 mm | - | 32 W/m² | - |
| 1788589245 | 12.22° C | 11% | 1021.5 hPa | 0 mm | - | 27 W/m² | - |
| 1788588909 | 12.22° C | 11% | 1021.1 hPa | 0 mm | - | 20 W/m² | - |
| 1788588609 | 12.22° C | 11% | 1021.2 hPa | 0 mm | - | 14 W/m² | - |
| 1788588309 | 12.22° C | 11% | 1021.2 hPa | 0 mm | - | 15 W/m² | - |
| 1788588009 | 12.22° C | 11% | 1021.2 hPa | 0 mm | - | 8 W/m² | - |
| 1788587710 | 11.67° C | 11% | 1021 hPa | 0 mm | - | 7 W/m² | - |
| 1788587409 | 11.67° C | 11% | 1021.2 hPa | 0 mm | - | 4 W/m² | - |
| 1788587109 | 11.67° C | 11% | 1020.9 hPa | 0 mm | - | 4 W/m² | - |
| 1788586809 | 11.67° C | 11% | 1021 hPa | 0 mm | - | 4 W/m² | - |
| 1788586509 | 11.67° C | 11% | 1021 hPa | 0 mm | - | 3 W/m² | - |
| 1788586209 | 11.67° C | 11% | 1020.7 hPa | 0 mm | - | 2 W/m² | - |
| 1788585909 | 11.67° C | 11% | 1020.8 hPa | 0 mm | - | 0 W/m² | - |
| 1788585610 | 11.67° C | 11% | 1020.7 hPa | 0 mm | - | 0 W/m² | - |
| 1788585309 | 11.67° C | 11% | 1020.8 hPa | 0 mm | - | 0 W/m² | - |
| 1788585009 | 11.67° C | 10% | 1020.6 hPa | 0 mm | - | 0 W/m² | - |
| 1788584709 | 11.67° C | 10% | 1020.6 hPa | 0 mm | - | 0 W/m² | - |
* Rain latest hour (hover to see other rain measurements)
** Current wind speed in m/s (hover to see current wind gust speed)